Wetbulb
69.44 68.79 69.19 68.81 68.65 68.23 67.95 69.18 71.45 72.44 73.54 73.94 74.02 73.30 73.32 72.64 72.63 72.53 72.24 71.93 70.23 68.72
69.64 69.42 69.15 69.12 69.09 69.20 69.06 69.52 70.72 71.87 72.82 73.72 73.92 73.59 73.21 72.72 72.68 72.72 72.07 72.11 72.13 70.46
69.93 69.89 69.90 69.29 69.00 69.13 68.71 70.21 70.90 71.43 72.05 72.95 73.82 73.68 73.20 72.77 73.34 72.93 72.51 71.68 71.25 71.50
70.10 70.30 70.34 69.30 69.26 69.04 69.02 68.91 69.99 71.76 72.20 72.62 73.49 73.93 73.04 73.24 73.47 72.90 73.22 72.84 72.29 71.81
70.62 70.51 70.20 69.96 69.86 69.71 69.16 69.41 69.94 71.23 72.24 72.74 73.65 74.05 73.47 73.01 73.47 73.06 73.04 73.30 73.18 72.78
70.15 70.04 69.96 70.12 70.20 70.30 70.30 70.28 70.46 70.33 70.87 72.06 72.95 73.80 74.01 73.85 73.50 73.30 73.74 73.65 73.40 73.39
69.88 70.27 70.54 70.86 71.09 70.08 70.08 69.90 70.36 71.21 71.56 72.08 72.86 73.43 74.08 74.00 73.70 73.53 73.39 73.87 73.67 73.75
70.30 70.49 70.60 70.73 71.59 72.44 71.45 70.31 70.48 70.34 70.69 71.69 72.81 72.95 73.46 74.03 73.83 73.51 73.27 73.54 73.77 74.05
70.57 70.76 70.59 70.49 70.28 70.46 71.56 72.51 72.57 71.48 71.03 71.05 71.74 67.93 67.14 71.83 73.73 73.98 73.49 73.11 73.55 74.19
70.27 70.78 71.15 71.60 71.54 70.82 70.14 70.59 71.40 72.07 72.02 71.69 71.80 65.14 65.32 67.43 73.38 73.58 73.75 73.88 73.89 73.73
70.21 70.36 71.16 71.63 71.68 71.94 72.07 71.10 70.55 70.87 71.87 71.84 71.72 64.17 63.34 65.72 72.78 73.58 73.78 73.90 74.11 73.98
70.88 70.68 70.95 70.96 71.71 72.45 72.75 72.62 72.23 72.04 71.68 71.58 72.01 62.79 62.21 64.34 71.40 72.56 73.27 73.96 74.48 74.23
71.77 71.88 71.52 71.76 71.82 72.88 73.28 73.45 73.87 73.53 73.55 69.73 72.56 63.71 60.32 63.48 72.00 71.73 72.32 73.43 74.20 66.39
72.19 72.21 72.73 73.15 73.49 73.31 73.47 73.66 73.79 74.23 74.88 75.08 72.98 72.81 60.44 59.00 71.65 72.64 72.76 72.94 73.48 74.55
MSLP
1015.03 1015.69 1016.13 1016.61 1017.04 1017.30 1017.57 1017.72 1018.06 1018.57 1018.86 1019.02 1019.31 1019.69 1019.94 1020.23 1020.55 1020.75 1020.96 1021.21 1021.39 1021.63
1014.27 1014.83 1015.42 1015.83 1016.29 1016.76 1016.98 1017.22 1017.63 1018.01 1018.45 1018.65 1018.95 1019.30 1019.69 1019.95 1020.12 1020.44 1020.66 1020.90 1021.17 1021.39
1013.36 1013.96 1014.55 1015.26 1015.71 1016.21 1016.59 1016.92 1017.22 1017.73 1018.08 1018.40 1018.54 1018.86 1019.38 1019.69 1019.79 1020.13 1020.29 1020.50 1020.81 1020.93
1012.49 1013.20 1013.90 1014.47 1014.96 1015.51 1016.12 1016.52 1016.95 1017.29 1017.68 1017.98 1018.26 1018.54 1018.96 1019.27 1019.48 1019.77 1019.89 1020.06 1020.22 1020.37
1011.75 1012.40 1013.09 1013.69 1014.21 1014.83 1015.49 1016.02 1016.29 1016.76 1017.19 1017.48 1017.79 1018.03 1018.43 1018.78 1019.02 1019.25 1019.41 1019.47 1019.71 1019.80
1011.08 1011.78 1012.21 1012.74 1013.46 1014.21 1014.93 1015.33 1015.76 1016.21 1016.57 1016.87 1017.13 1017.52 1017.85 1018.08 1018.33 1018.54 1018.62 1018.77 1019.03 1019.07
1010.10 1010.74 1011.24 1011.86 1012.60 1013.41 1014.14 1014.65 1014.99 1015.35 1015.70 1016.04 1016.43 1016.83 1017.17 1017.40 1017.64 1017.89 1018.01 1018.13 1018.22 1018.30
1009.07 1009.91 1010.65 1011.20 1011.77 1012.51 1013.29 1013.65 1013.98 1014.53 1014.94 1015.29 1015.73 1016.02 1016.37 1016.59 1016.84 1017.13 1017.32 1017.40 1017.39 1017.52
1008.35 1009.07 1009.65 1010.33 1011.01 1011.73 1012.40 1012.83 1013.24 1013.61 1014.01 1014.48 1014.70 1014.80 1015.27 1015.63 1016.03 1016.25 1016.43 1016.51 1016.55 1016.67
1007.49 1008.15 1008.85 1009.54 1010.22 1010.81 1011.44 1012.08 1012.33 1012.73 1013.24 1013.45 1013.66 1013.93 1014.26 1014.71 1015.14 1015.29 1015.30 1015.39 1015.55 1015.75
1006.75 1007.43 1008.23 1008.92 1009.32 1009.94 1010.61 1011.05 1011.42 1011.86 1012.22 1012.53 1012.67 1012.99 1013.36 1013.84 1014.35 1014.33 1014.22 1014.29 1014.45 1014.65
1005.78 1006.63 1007.36 1007.94 1008.43 1009.04 1009.75 1010.17 1010.35 1010.74 1011.24 1011.51 1011.70 1012.05 1012.53 1013.21 1013.53 1013.41 1013.27 1013.39 1013.54 1013.69
1005.00 1005.70 1006.23 1006.68 1007.31 1008.02 1008.66 1009.01 1009.48 1009.84 1010.11 1010.37 1010.73 1011.14 1011.55 1012.18 1012.51 1012.51 1012.51 1012.52 1012.47 1012.60
1004.24 1004.83 1005.27 1006.03 1006.61 1007.22 1007.76 1008.21 1008.64 1008.95 1009.03 1009.36 1009.75 1010.10 1010.50 1010.90 1011.34 1011.29 1011.41 1011.30 1011.30 1011.45
Wind_Speed
12 8 9 9 6 6 6 5 5 7 6 7 5 5 4 3 4 4 4 5 4 2
12 12 11 9 8 7 5 5 6 7 8 8 7 7 6 5 6 5 5 6 4 4
14 14 11 8 10 8 6 6 6 7 8 7 8 8 8 6 5 6 5 5 5 5
14 13 12 11 10 10 7 8 7 8 8 8 9 8 8 8 7 8 7 6 7 8
14 14 14 12 12 10 10 9 10 8 8 8 8 9 9 10 9 10 10 10 8 9
15 14 15 15 12 11 10 11 10 9 10 10 10 9 9 10 10 11 12 11 11 12
17 17 16 14 13 12 12 12 12 12 12 11 9 9 10 10 10 10 11 12 12 12
16 14 13 13 14 13 13 13 13 12 11 11 11 9 11 11 11 11 11 12 13 13
15 15 15 14 13 12 13 14 13 13 14 13 11 15 17 15 12 12 12 12 12 13
15 16 15 14 13 13 14 12 14 13 12 14 14 15 18 19 13 12 13 14 12 11
15 14 13 13 13 12 12 13 12 12 13 13 12 15 17 17 16 14 15 15 15 15
16 15 14 14 14 13 12 12 13 13 13 15 14 16 18 14 14 15 17 14 14 15
14 15 15 15 15 13 12 12 10 12 14 15 15 14 17 17 11 13 11 13 15 17
13 14 14 12 12 12 12 11 11 12 12 14 14 14 18 20 13 12 11 11 11 11
Wind_Direction
192 190 198 191 192 197 194 195 171 193 193 206 199 194 202 196 204 208 230 220 214 210
193 192 198 190 189 196 185 189 182 185 201 207 201 197 194 212 210 203 219 227 221 219
193 196 194 182 193 191 186 188 176 187 203 203 208 201 191 210 223 211 226 225 219 233
195 194 190 192 197 193 182 186 195 191 200 205 205 202 194 209 213 217 230 224 226 237
195 191 192 198 198 190 189 189 199 196 202 207 208 203 200 207 209 216 225 228 228 241
194 192 196 199 194 192 186 193 198 199 212 213 209 202 203 208 209 214 224 227 223 233
192 195 197 196 194 184 187 196 201 202 206 209 206 204 207 212 216 217 224 227 227 229
193 192 193 192 197 193 189 203 206 204 209 208 207 209 210 214 216 218 226 226 231 232
189 190 193 193 192 191 196 204 204 207 209 210 216 214 208 210 218 218 220 227 231 233
189 193 196 194 188 195 199 199 211 212 210 217 219 212 210 207 222 222 224 226 229 231
188 191 190 191 194 197 198 202 205 211 213 218 225 211 212 207 220 229 231 231 230 232
185 186 186 194 194 198 200 204 209 210 212 217 226 209 209 202 223 232 236 234 230 231
183 187 191 195 196 200 204 212 212 215 215 216 224 211 206 201 219 232 236 235 235 223
185 190 193 191 194 196 201 206 209 215 219 220 214 217 202 202 214 224 230 233 234 232